GFSNGP_prec_precacc24_099.txt.gz
Total_Precipitation_Accumulation
0.01 0.01 0.00 0.00 0.00 0.00 0.00 0.00 0.00 0.00 0.00 0.00 0.00 0.00 0.00 0.00 0.00 0.00 0.00 0.00 0.00 0.00 0.00 0.00 0.00 0.00 0.01 0.03 0.05 0.15 0.20 0.30 0.28 0.36 0.61 0.65 0.69 0.61 0.48 0.32 0.29 0.25 0.19 0.16
0.02 0.00 0.00 0.00 0.00 0.00 0.00 0.00 0.00 0.00 0.00 0.00 0.00 0.00 0.00 0.00 0.00 0.00 0.00 0.00 0.00 0.00 0.00 0.00 0.00 0.00 0.01 0.04 0.07 0.14 0.16 0.16 0.20 0.26 0.23 0.28 0.26 0.24 0.19 0.17 0.16 0.14 0.15 0.14
0.07 0.02 0.04 0.04 0.00 0.00 0.00 0.00 0.00 0.00 0.00 0.00 0.00 0.00 0.00 0.00 0.00 0.00 0.00 0.00 0.00 0.00 0.00 0.00 0.00 0.03 0.02 0.02 0.05 0.07 0.07 0.10 0.14 0.14 0.10 0.11 0.11 0.11 0.11 0.10 0.10 0.10 0.10 0.10
0.19 0.09 0.13 0.03 0.00 0.00 0.00 0.00 0.00 0.00 0.00 0.00 0.00 0.00 0.00 0.00 0.00 0.00 0.00 0.00 0.00 0.00 0.00 0.00 0.02 0.02 0.01 0.02 0.02 0.04 0.06 0.07 0.06 0.05 0.05 0.04 0.06 0.08 0.09 0.11 0.10 0.12 0.16 0.25
0.27 0.16 0.09 0.01 0.01 0.01 0.00 0.00 0.00 0.01 0.01 0.00 0.00 0.00 0.00 0.00 0.00 0.00 0.00 0.00 0.00 0.00 0.00 0.00 0.00 0.00 0.00 0.01 0.02 0.02 0.03 0.04 0.03 0.03 0.03 0.06 0.10 0.10 0.10 0.12 0.15 0.18 0.21 0.23
0.38 0.19 0.03 0.02 0.01 0.02 0.01 0.03 0.05 0.03 0.03 0.01 0.00 0.01 0.00 0.00 0.00 0.00 0.00 0.00 0.00 0.00 0.00 0.00 0.00 0.00 0.00 0.00 0.01 0.01 0.03 0.03 0.03 0.04 0.04 0.05 0.05 0.06 0.07 0.11 0.16 0.15 0.18 0.14
0.23 0.31 0.07 0.01 0.03 0.04 0.11 0.09 0.04 0.02 0.00 0.00 0.01 0.03 0.00 0.00 0.00 0.00 0.00 0.00 0.00 0.00 0.00 0.00 0.00 0.00 0.00 0.00 0.01 0.01 0.02 0.02 0.02 0.02 0.02 0.03 0.03 0.05 0.07 0.07 0.06 0.05 0.04 0.03
0.30 0.33 0.09 0.03 0.16 0.21 0.21 0.10 0.06 0.03 0.01 0.01 0.01 0.01 0.00 0.00 0.00 0.00 0.00 0.00 0.00 0.00 0.00 0.00 0.00 0.00 0.00 0.00 0.00 0.01 0.01 0.01 0.01 0.01 0.01 0.01 0.01 0.01 0.02 0.02 0.03 0.02 0.03 0.05
0.31 0.22 0.06 0.03 0.08 0.11 0.10 0.07 0.10 0.08 0.04 0.02 0.02 0.02 0.00 0.01 0.00 0.00 0.00 0.00 0.00 0.00 0.00 0.00 0.00 0.00 0.00 0.00 0.01 0.00 0.00 0.00 0.00 0.00 0.00 0.00 0.00 0.00 0.01 0.01 0.01 0.02 0.03 0.05
0.03 0.00 0.03 0.09 0.10 0.06 0.07 0.02 0.03 0.02 0.06 0.13 0.11 0.03 0.01 0.01 0.01 0.01 0.00 0.00 0.00 0.00 0.00 0.00 0.00 0.00 0.00 0.00 0.00 0.00 0.00 0.00 0.00 0.00 0.00 0.00 0.00 0.01 0.01 0.02 0.03 0.07 0.14 0.20
0.01 0.00 0.00 0.00 0.01 0.02 0.01 0.00 0.01 0.04 0.07 0.15 0.20 0.09 0.06 0.06 0.04 0.02 0.02 0.02 0.00 0.00 0.00 0.00 0.00 0.00 0.00 0.00 0.00 0.00 0.00 0.00 0.00 0.00 0.00 0.00 0.01 0.03 0.05 0.15 0.17 0.18 0.20 0.18
0.00 0.00 0.00 0.00 0.00 0.00 0.00 0.00 0.01 0.04 0.16 0.11 0.05 0.04 0.06 0.08 0.15 0.15 0.07 0.10 0.09 0.05 0.02 0.01 0.00 0.00 0.00 0.00 0.00 0.00 0.00 0.00 0.00 0.01 0.02 0.04 0.08 0.15 0.17 0.16 0.14 0.14 0.14 0.13
0.00 0.00 0.00 0.00 0.00 0.00 0.01 0.01 0.02 0.03 0.04 0.02 0.01 0.05 0.13 0.26 0.32 0.18 0.09 0.09 0.14 0.14 0.06 0.02 0.01 0.01 0.01 0.01 0.01 0.02 0.02 0.04 0.07 0.12 0.15 0.15 0.13 0.11 0.14 0.15 0.13 0.10 0.08 0.06
0.00 0.01 0.00 0.00 0.01 0.02 0.01 0.02 0.04 0.04 0.06 0.04 0.02 0.04 0.10 0.26 0.65 0.86 0.75 0.41 0.23 0.17 0.14 0.14 0.15 0.21 0.21 0.17 0.16 0.17 0.16 0.17 0.16 0.14 0.11 0.10 0.11 0.12 0.11 0.09 0.07 0.07 0.08 0.10
0.00 0.01 0.02 0.03 0.02 0.03 0.02 0.03 0.03 0.05 0.08 0.12 0.09 0.11 0.22 0.31 0.29 0.56 1.01 1.16 1.06 0.86 0.74 0.61 0.56 0.70 0.60 0.49 0.43 0.38 0.28 0.21 0.16 0.14 0.12 0.10 0.08 0.05 0.03 0.03 0.02 0.02 0.01 0.01
0.00 0.01 0.01 0.03 0.04 0.04 0.02 0.02 0.03 0.04 0.02 0.02 0.08 0.18 0.14 0.15 0.09 0.14 0.42 0.62 0.74 0.85 0.93 0.89 0.82 0.77 0.49 0.33 0.23 0.18 0.15 0.12 0.08 0.06 0.05 0.04 0.03 0.02 0.02 0.00 0.00 0.01 0.01 0.02
0.00 0.00 0.00 0.00 0.00 0.00 0.01 0.01 0.02 0.02 0.01 0.01 0.04 0.04 0.02 0.04 0.09 0.21 0.33 0.44 0.63 0.77 0.72 0.55 0.43 0.27 0.14 0.09 0.07 0.06 0.04 0.01 0.01 0.00 0.00 0.00 0.00 0.00 0.00 0.00 0.00 0.01 0.01 0.01
0.00 0.00 0.00 0.00 0.00 0.00 0.00 0.00 0.00 0.00 0.00 0.01 0.09 0.15 0.11 0.09 0.21 0.48 0.83 0.83 0.56 0.48 0.43 0.30 0.14 0.05 0.01 0.01 0.00 0.00 0.00 0.00 0.00 0.00 0.00 0.00 0.00 0.00 0.00 0.00 0.00 0.00 0.01 0.00
0.02 0.01 0.00 0.00 0.00 0.00 0.00 0.01 0.01 0.02 0.03 0.06 0.12 0.27 0.33 0.41 0.50 0.58 0.61 0.53 0.46 0.33 0.26 0.07 0.02 0.00 0.00 0.00 0.00 0.00 0.00 0.00 0.00 0.00 0.00 0.00 0.00 0.00 0.00 0.00 0.01 0.01 0.01 0.01
0.02 0.01 0.01 0.01 0.01 0.02 0.03 0.06 0.06 0.11 0.19 0.20 0.25 0.36 0.37 0.42 0.35 0.32 0.23 0.17 0.13 0.07 0.02 0.00 0.00 0.00 0.00 0.00 0.00 0.00 0.00 0.00 0.00 0.00 0.00 0.00 0.00 0.00 0.00 0.00 0.01 0.01 0.01 0.01
0.20 0.04 0.05 0.06 0.06 0.11 0.17 0.20 0.20 0.29 0.40 0.36 0.30 0.32 0.34 0.47 0.41 0.30 0.15 0.08 0.05 0.00 0.00 0.00 0.00 0.00 0.00 0.00 0.00 0.00 0.00 0.00 0.00 0.00 0.00 0.00 0.00 0.00 0.00 0.00 0.01 0.01 0.01 0.01
0.48 0.50 0.36 0.33 0.35 0.39 0.37 0.37 0.31 0.38 0.40 0.43 0.43 0.40 0.31 0.34 0.28 0.21 0.10 0.05 0.01 0.00 0.00 0.00 0.00 0.00 0.00 0.00 0.00 0.00 0.00 0.00 0.00 0.00 0.01 0.00 0.01 0.01 0.01 0.01 0.01 0.02 0.02 0.02
0.58 0.66 0.70 0.58 0.50 0.61 0.70 0.62 0.60 0.48 0.50 0.47 0.40 0.35 0.24 0.21 0.14 0.07 0.06 0.03 0.01 0.01 0.01 0.00 0.00 0.00 0.00 0.00 0.01 0.00 0.00 0.00 0.00 0.01 0.01 0.01 0.01 0.01 0.01 0.02 0.02 0.02 0.02 0.01
0.60 0.56 0.64 0.66 0.58 0.40 0.48 0.61 0.52 0.47 0.41 0.38 0.31 0.25 0.14 0.08 0.05 0.02 0.01 0.01 0.00 0.00 0.01 0.00 0.00 0.00 0.00 0.01 0.01 0.01 0.00 0.01 0.01 0.01 0.01 0.01 0.01 0.01 0.01 0.01 0.01 0.02 0.02 0.01
0.55 0.49 0.44 0.43 0.39 0.43 0.38 0.37 0.31 0.33 0.27 0.27 0.21 0.12 0.05 0.03 0.04 0.05 0.02 0.01 0.00 0.03 0.03 0.01 0.00 0.00 0.00 0.01 0.01 0.00 0.00 0.01 0.01 0.01 0.01 0.01 0.01 0.01 0.01 0.01 0.01 0.01 0.01 0.01
0.49 0.47 0.43 0.39 0.40 0.37 0.31 0.29 0.25 0.28 0.21 0.16 0.12 0.07 0.05 0.03 0.02 0.02 0.01 0.00 0.00 0.00 0.01 0.01 0.01 0.00 0.00 0.00 0.00 0.01 0.01 0.01 0.01 0.01 0.01 0.00 0.01 0.01 0.01 0.00 0.01 0.01 0.01 0.01
0.40 0.36 0.26 0.26 0.31 0.29 0.26 0.23 0.14 0.15 0.11 0.06 0.06 0.04 0.02 0.02 0.01 0.01 0.01 0.00 0.01 0.01 0.01 0.01 0.01 0.01 0.01 0.00 0.01 0.01 0.00 0.01 0.01 0.01 0.00 0.01 0.01 0.01 0.01 0.01 0.00 0.00 0.00 0.00

GFSNGP_prec_precacc24_105.txt.gz
Total_Precipitation_Accumulation
0.01 0.01 0.00 0.01 0.00 0.00 0.00 0.04 0.25 0.12 0.01 0.00 0.00 0.00 0.01 0.00 0.00 0.00 0.00 0.01 0.01 0.05 0.03 0.00 0.00 0.00 0.00 0.00 0.00 0.01 0.05 0.09 0.07 0.07 0.24 0.44 0.53 0.51 0.45 0.29 0.25 0.21 0.16 0.14
0.02 0.00 0.00 0.00 0.00 0.00 0.00 0.00 0.00 0.00 0.00 0.00 0.00 0.00 0.00 0.00 0.00 0.00 0.00 0.00 0.00 0.01 0.03 0.02 0.00 0.00 0.00 0.00 0.00 0.01 0.03 0.04 0.05 0.06 0.10 0.13 0.16 0.19 0.17 0.16 0.16 0.14 0.15 0.13
0.08 0.02 0.04 0.04 0.00 0.00 0.00 0.00 0.00 0.00 0.00 0.00 0.00 0.00 0.00 0.00 0.00 0.00 0.00 0.00 0.00 0.00 0.01 0.09 0.04 0.00 0.00 0.00 0.00 0.02 0.02 0.02 0.02 0.03 0.03 0.05 0.07 0.09 0.10 0.09 0.10 0.10 0.10 0.11
0.22 0.14 0.17 0.03 0.00 0.00 0.00 0.00 0.01 0.01 0.00 0.00 0.00 0.00 0.00 0.00 0.00 0.00 0.00 0.00 0.00 0.00 0.00 0.00 0.02 0.02 0.00 0.01 0.01 0.02 0.02 0.02 0.01 0.02 0.02 0.03 0.03 0.06 0.08 0.11 0.11 0.12 0.17 0.27
0.33 0.18 0.09 0.01 0.01 0.02 0.03 0.11 0.06 0.04 0.02 0.00 0.00 0.00 0.00 0.00 0.00 0.00 0.00 0.00 0.00 0.00 0.00 0.00 0.00 0.06 0.09 0.04 0.03 0.06 0.04 0.03 0.03 0.03 0.03 0.05 0.09 0.10 0.11 0.14 0.18 0.21 0.25 0.27
0.36 0.21 0.03 0.02 0.03 0.02 0.02 0.15 0.12 0.07 0.06 0.02 0.00 0.02 0.00 0.00 0.00 0.00 0.00 0.00 0.00 0.00 0.00 0.00 0.01 0.03 0.02 0.04 0.02 0.03 0.03 0.03 0.03 0.03 0.04 0.05 0.06 0.08 0.10 0.15 0.20 0.21 0.26 0.23
0.21 0.32 0.08 0.01 0.03 0.04 0.12 0.16 0.07 0.03 0.01 0.00 0.01 0.03 0.00 0.00 0.00 0.00 0.00 0.00 0.00 0.00 0.00 0.00 0.01 0.03 0.03 0.03 0.02 0.07 0.08 0.05 0.04 0.04 0.03 0.04 0.06 0.09 0.12 0.14 0.13 0.12 0.11 0.10
0.31 0.34 0.10 0.05 0.16 0.25 0.26 0.10 0.07 0.03 0.01 0.01 0.01 0.01 0.00 0.00 0.00 0.00 0.00 0.00 0.00 0.00 0.00 0.00 0.00 0.02 0.05 0.07 0.07 0.10 0.08 0.09 0.09 0.08 0.05 0.04 0.04 0.06 0.08 0.08 0.10 0.09 0.10 0.10
0.32 0.24 0.07 0.07 0.15 0.17 0.10 0.07 0.10 0.08 0.04 0.02 0.02 0.03 0.03 0.01 0.00 0.00 0.00 0.00 0.00 0.00 0.00 0.00 0.00 0.00 0.01 0.02 0.04 0.05 0.07 0.10 0.08 0.06 0.04 0.03 0.04 0.04 0.06 0.05 0.05 0.07 0.08 0.09
0.19 0.06 0.09 0.11 0.08 0.07 0.07 0.02 0.03 0.02 0.07 0.13 0.15 0.10 0.08 0.03 0.02 0.01 0.00 0.01 0.00 0.00 0.00 0.01 0.00 0.00 0.00 0.01 0.02 0.02 0.02 0.04 0.04 0.05 0.04 0.04 0.05 0.05 0.05 0.05 0.05 0.09 0.16 0.22
0.15 0.12 0.05 0.04 0.01 0.01 0.01 0.00 0.00 0.04 0.09 0.20 0.32 0.30 0.25 0.22 0.08 0.03 0.03 0.02 0.02 0.02 0.01 0.02 0.03 0.02 0.01 0.03 0.05 0.05 0.04 0.04 0.05 0.06 0.06 0.06 0.08 0.10 0.12 0.21 0.20 0.22 0.23 0.21
0.08 0.14 0.07 0.01 0.00 0.00 0.00 0.00 0.01 0.04 0.18 0.16 0.08 0.09 0.14 0.19 0.28 0.28 0.18 0.16 0.12 0.09 0.06 0.06 0.05 0.06 0.06 0.06 0.07 0.06 0.05 0.05 0.07 0.06 0.06 0.09 0.15 0.25 0.28 0.26 0.23 0.20 0.18 0.16
0.00 0.01 0.00 0.00 0.00 0.00 0.00 0.01 0.01 0.03 0.04 0.02 0.02 0.05 0.14 0.29 0.38 0.39 0.35 0.28 0.23 0.26 0.24 0.12 0.08 0.08 0.07 0.08 0.10 0.12 0.11 0.10 0.16 0.21 0.26 0.29 0.33 0.33 0.38 0.34 0.22 0.15 0.10 0.08
0.00 0.01 0.00 0.00 0.01 0.02 0.01 0.02 0.04 0.04 0.06 0.04 0.02 0.04 0.10 0.28 0.79 1.16 1.05 0.73 0.49 0.39 0.37 0.42 0.43 0.49 0.49 0.43 0.40 0.43 0.49 0.54 0.51 0.52 0.47 0.41 0.35 0.29 0.20 0.15 0.12 0.11 0.09 0.11
0.00 0.01 0.03 0.03 0.02 0.04 0.03 0.03 0.03 0.05 0.08 0.12 0.09 0.11 0.22 0.37 0.54 0.79 1.27 1.41 1.34 1.26 1.26 1.15 1.08 1.34 1.26 1.14 1.02 0.95 0.85 0.75 0.58 0.42 0.31 0.21 0.13 0.08 0.06 0.05 0.05 0.05 0.03 0.02
0.00 0.01 0.02 0.03 0.04 0.04 0.03 0.02 0.03 0.04 0.02 0.02 0.08 0.19 0.16 0.27 0.34 0.43 0.68 0.89 1.02 1.29 1.46 1.43 1.33 1.26 0.98 0.78 0.63 0.48 0.34 0.21 0.11 0.07 0.06 0.04 0.04 0.03 0.02 0.01 0.01 0.01 0.01 0.02
0.00 0.00 0.00 0.00 0.01 0.01 0.01 0.01 0.02 0.02 0.01 0.01 0.04 0.05 0.04 0.07 0.15 0.31 0.50 0.51 0.63 0.77 0.78 0.66 0.62 0.48 0.35 0.29 0.24 0.16 0.09 0.04 0.01 0.01 0.00 0.01 0.00 0.00 0.00 0.00 0.00 0.01 0.01 0.01
0.00 0.00 0.00 0.00 0.00 0.00 0.00 0.00 0.00 0.00 0.00 0.01 0.09 0.16 0.13 0.08 0.13 0.31 0.66 0.77 0.49 0.47 0.50 0.45 0.32 0.22 0.16 0.12 0.06 0.01 0.00 0.00 0.00 0.00 0.00 0.00 0.00 0.00 0.00 0.00 0.00 0.00 0.01 0.00
0.02 0.01 0.00 0.00 0.00 0.00 0.00 0.00 0.00 0.01 0.02 0.04 0.10 0.23 0.30 0.35 0.40 0.48 0.55 0.54 0.53 0.40 0.39 0.20 0.13 0.07 0.03 0.01 0.00 0.00 0.00 0.00 0.00 0.00 0.00 0.00 0.00 0.00 0.00 0.00 0.00 0.01 0.01 0.01
0.02 0.01 0.01 0.01 0.01 0.01 0.01 0.02 0.02 0.03 0.06 0.06 0.12 0.27 0.33 0.43 0.37 0.36 0.28 0.26 0.22 0.15 0.07 0.02 0.01 0.01 0.00 0.00 0.00 0.00 0.00 0.00 0.00 0.00 0.00 0.00 0.00 0.00 0.00 0.00 0.00 0.01 0.01 0.01
0.20 0.04 0.05 0.05 0.06 0.08 0.10 0.09 0.07 0.13 0.24 0.25 0.24 0.34 0.40 0.56 0.54 0.45 0.30 0.22 0.16 0.08 0.04 0.01 0.00 0.00 0.00 0.00 0.00 0.00 0.00 0.00 0.00 0.00 0.00 0.00 0.00 0.00 0.00 0.00 0.00 0.01 0.01 0.01
0.43 0.44 0.27 0.22 0.24 0.25 0.25 0.27 0.25 0.32 0.38 0.43 0.45 0.45 0.41 0.48 0.43 0.37 0.28 0.20 0.13 0.06 0.04 0.02 0.01 0.00 0.00 0.00 0.00 0.00 0.00 0.00 0.00 0.00 0.00 0.00 0.00 0.00 0.00 0.01 0.01 0.01 0.01 0.01
0.40 0.49 0.54 0.45 0.41 0.51 0.62 0.57 0.58 0.48 0.52 0.50 0.46 0.43 0.34 0.34 0.27 0.17 0.16 0.12 0.05 0.02 0.01 0.01 0.00 0.00 0.00 0.00 0.00 0.00 0.00 0.00 0.00 0.00 0.00 0.00 0.00 0.00 0.00 0.01 0.01 0.01 0.01 0.00
0.43 0.42 0.51 0.57 0.54 0.40 0.48 0.64 0.57 0.53 0.46 0.45 0.40 0.35 0.25 0.20 0.18 0.14 0.08 0.04 0.02 0.02 0.01 0.00 0.00 0.00 0.00 0.00 0.00 0.00 0.00 0.00 0.00 0.00 0.00 0.00 0.00 0.00 0.00 0.00 0.00 0.00 0.00 0.00
0.49 0.45 0.43 0.44 0.40 0.46 0.42 0.43 0.38 0.42 0.36 0.37 0.34 0.26 0.17 0.12 0.08 0.07 0.04 0.03 0.02 0.02 0.01 0.01 0.00 0.00 0.00 0.00 0.00 0.00 0.00 0.00 0.00 0.00 0.00 0.00 0.00 0.00 0.00 0.00 0.00 0.00 0.00 0.00
0.50 0.48 0.44 0.40 0.42 0.40 0.36 0.33 0.30 0.36 0.28 0.23 0.22 0.16 0.12 0.06 0.04 0.03 0.02 0.02 0.01 0.01 0.01 0.00 0.00 0.00 0.00 0.00 0.00 0.00 0.00 0.00 0.00 0.00 0.00 0.00 0.00 0.00 0.00 0.00 0.00 0.00 0.00 0.00
0.41 0.38 0.28 0.30 0.34 0.33 0.30 0.27 0.19 0.22 0.20 0.15 0.14 0.11 0.07 0.04 0.03 0.02 0.01 0.01 0.01 0.01 0.01 0.00 0.00 0.00 0.00 0.00 0.00 0.00 0.00 0.00 0.00 0.00 0.00 0.00 0.00 0.00 0.00 0.00 0.00 0.00 0.00 0.00

GFSNGP_prec_precacc24_108.txt.gz
Total_Precipitation_Accumulation
0.01 0.01 0.00 0.01 0.00 0.00 0.02 0.07 0.26 0.13 0.01 0.00 0.00 0.01 0.01 0.06 0.03 0.01 0.01 0.01 0.01 0.08 0.13 0.09 0.05 0.04 0.01 0.00 0.00 0.00 0.00 0.00 0.00 0.00 0.03 0.06 0.13 0.29 0.34 0.23 0.20 0.18 0.15 0.13
0.02 0.00 0.00 0.00 0.00 0.00 0.00 0.00 0.00 0.00 0.00 0.00 0.00 0.00 0.00 0.01 0.01 0.02 0.01 0.00 0.00 0.01 0.07 0.08 0.07 0.07 0.05 0.03 0.00 0.00 0.00 0.00 0.00 0.01 0.02 0.05 0.09 0.10 0.12 0.14 0.14 0.13 0.14 0.12
0.08 0.02 0.04 0.04 0.00 0.00 0.00 0.00 0.00 0.00 0.00 0.00 0.00 0.01 0.01 0.01 0.02 0.01 0.00 0.00 0.00 0.00 0.01 0.12 0.09 0.05 0.07 0.08 0.06 0.01 0.00 0.00 0.00 0.01 0.02 0.04 0.05 0.06 0.07 0.07 0.08 0.09 0.10 0.10
0.22 0.14 0.15 0.01 0.00 0.00 0.00 0.01 0.01 0.02 0.01 0.00 0.00 0.05 0.03 0.00 0.00 0.00 0.00 0.00 0.00 0.00 0.00 0.01 0.04 0.08 0.12 0.16 0.17 0.09 0.02 0.01 0.01 0.01 0.02 0.02 0.02 0.05 0.06 0.07 0.08 0.10 0.16 0.24
0.31 0.20 0.09 0.01 0.02 0.03 0.04 0.14 0.10 0.05 0.04 0.01 0.01 0.02 0.03 0.00 0.00 0.00 0.00 0.00 0.00 0.00 0.00 0.00 0.01 0.08 0.20 0.22 0.24 0.20 0.12 0.07 0.04 0.02 0.03 0.05 0.09 0.10 0.10 0.11 0.16 0.18 0.24 0.28
0.32 0.23 0.04 0.04 0.04 0.03 0.03 0.17 0.15 0.08 0.07 0.02 0.01 0.03 0.00 0.00 0.00 0.00 0.00 0.00 0.00 0.00 0.00 0.01 0.05 0.08 0.04 0.06 0.10 0.13 0.12 0.09 0.06 0.04 0.04 0.05 0.05 0.07 0.10 0.15 0.21 0.23 0.29 0.26
0.19 0.29 0.08 0.01 0.04 0.05 0.15 0.18 0.08 0.03 0.01 0.00 0.01 0.03 0.00 0.00 0.00 0.00 0.00 0.00 0.00 0.00 0.00 0.00 0.04 0.09 0.09 0.09 0.08 0.16 0.16 0.15 0.11 0.06 0.03 0.04 0.07 0.10 0.13 0.16 0.15 0.15 0.14 0.11
0.31 0.34 0.09 0.05 0.19 0.30 0.28 0.11 0.07 0.03 0.01 0.01 0.01 0.01 0.00 0.00 0.00 0.00 0.00 0.00 0.00 0.00 0.00 0.00 0.01 0.05 0.11 0.16 0.15 0.20 0.16 0.17 0.16 0.12 0.07 0.05 0.05 0.07 0.09 0.10 0.12 0.11 0.12 0.13
0.32 0.24 0.08 0.08 0.20 0.28 0.11 0.07 0.10 0.08 0.04 0.02 0.02 0.03 0.03 0.01 0.00 0.00 0.00 0.00 0.00 0.00 0.00 0.00 0.00 0.00 0.03 0.07 0.08 0.10 0.15 0.17 0.14 0.11 0.10 0.09 0.08 0.08 0.11 0.11 0.11 0.10 0.10 0.15
0.24 0.07 0.09 0.11 0.09 0.11 0.08 0.02 0.03 0.02 0.07 0.13 0.15 0.10 0.08 0.03 0.02 0.01 0.00 0.01 0.00 0.00 0.00 0.01 0.00 0.00 0.00 0.01 0.03 0.03 0.04 0.05 0.05 0.08 0.07 0.07 0.08 0.09 0.09 0.10 0.10 0.14 0.22 0.30
0.49 0.63 0.30 0.11 0.06 0.01 0.01 0.00 0.00 0.04 0.09 0.20 0.32 0.30 0.25 0.22 0.08 0.03 0.03 0.02 0.02 0.02 0.01 0.02 0.03 0.02 0.03 0.05 0.07 0.06 0.05 0.05 0.05 0.08 0.07 0.09 0.16 0.23 0.27 0.41 0.40 0.43 0.46 0.39
0.33 0.25 0.16 0.04 0.00 0.00 0.00 0.00 0.03 0.05 0.18 0.16 0.08 0.09 0.14 0.19 0.28 0.28 0.18 0.16 0.13 0.10 0.06 0.06 0.06 0.08 0.07 0.08 0.11 0.11 0.09 0.11 0.14 0.11 0.12 0.16 0.23 0.41 0.48 0.53 0.54 0.54 0.54 0.43
0.01 0.01 0.00 0.00 0.00 0.00 0.00 0.02 0.02 0.03 0.03 0.01 0.01 0.05 0.14 0.29 0.38 0.39 0.36 0.30 0.26 0.28 0.25 0.13 0.09 0.09 0.09 0.10 0.12 0.15 0.15 0.15 0.22 0.25 0.30 0.35 0.43 0.48 0.64 0.69 0.51 0.36 0.29 0.20
0.00 0.01 0.01 0.00 0.00 0.01 0.01 0.02 0.04 0.03 0.05 0.03 0.01 0.03 0.10 0.28 0.79 1.19 1.10 0.76 0.53 0.40 0.39 0.44 0.47 0.54 0.54 0.47 0.45 0.49 0.55 0.59 0.54 0.57 0.58 0.56 0.52 0.47 0.36 0.30 0.24 0.20 0.16 0.16
0.00 0.01 0.03 0.03 0.02 0.05 0.04 0.03 0.03 0.05 0.08 0.12 0.09 0.11 0.22 0.37 0.54 0.82 1.32 1.45 1.38 1.29 1.31 1.18 1.09 1.39 1.36 1.21 1.08 1.00 0.90 0.87 0.80 0.72 0.61 0.49 0.38 0.26 0.18 0.13 0.11 0.11 0.08 0.06
0.00 0.01 0.02 0.03 0.03 0.04 0.03 0.02 0.03 0.04 0.02 0.02 0.08 0.19 0.16 0.27 0.36 0.45 0.70 0.94 1.05 1.29 1.46 1.43 1.42 1.35 1.10 0.92 0.75 0.68 0.62 0.49 0.34 0.24 0.20 0.16 0.12 0.08 0.06 0.04 0.04 0.03 0.03 0.03
0.00 0.00 0.00 0.00 0.01 0.01 0.01 0.01 0.02 0.02 0.01 0.01 0.04 0.05 0.04 0.08 0.16 0.38 0.54 0.53 0.64 0.77 0.82 0.74 0.73 0.60 0.46 0.38 0.34 0.29 0.26 0.23 0.16 0.08 0.05 0.03 0.03 0.02 0.01 0.01 0.00 0.01 0.01 0.01
0.00 0.00 0.00 0.00 0.00 0.00 0.00 0.00 0.00 0.00 0.00 0.01 0.09 0.16 0.12 0.08 0.13 0.32 0.64 0.72 0.47 0.47 0.54 0.51 0.39 0.29 0.22 0.20 0.14 0.08 0.03 0.02 0.01 0.01 0.01 0.01 0.01 0.00 0.00 0.00 0.00 0.00 0.01 0.00
0.00 0.00 0.00 0.00 0.00 0.00 0.00 0.00 0.01 0.01 0.02 0.04 0.10 0.21 0.26 0.28 0.33 0.43 0.53 0.53 0.54 0.42 0.44 0.25 0.18 0.11 0.08 0.07 0.04 0.02 0.01 0.00 0.00 0.00 0.00 0.00 0.00 0.00 0.00 0.00 0.00 0.00 0.00 0.01
0.01 0.00 0.00 0.00 0.01 0.01 0.01 0.02 0.03 0.04 0.06 0.06 0.10 0.21 0.25 0.34 0.31 0.32 0.27 0.27 0.25 0.21 0.15 0.10 0.06 0.04 0.02 0.01 0.00 0.00 0.00 0.00 0.00 0.00 0.00 0.00 0.00 0.00 0.00 0.00 0.00 0.00 0.00 0.00
0.19 0.04 0.04 0.06 0.06 0.08 0.10 0.08 0.07 0.12 0.21 0.22 0.23 0.31 0.36 0.49 0.50 0.43 0.30 0.23 0.21 0.14 0.11 0.05 0.01 0.00 0.00 0.00 0.00 0.00 0.00 0.00 0.00 0.00 0.00 0.00 0.00 0.00 0.00 0.00 0.00 0.00 0.00 0.00
0.42 0.42 0.25 0.21 0.23 0.23 0.22 0.24 0.22 0.28 0.33 0.38 0.41 0.42 0.40 0.48 0.44 0.39 0.31 0.23 0.18 0.12 0.08 0.04 0.02 0.01 0.00 0.00 0.00 0.00 0.00 0.00 0.00 0.00 0.00 0.00 0.00 0.00 0.00 0.00 0.00 0.00 0.01 0.01
0.39 0.48 0.51 0.42 0.37 0.45 0.53 0.47 0.48 0.41 0.47 0.48 0.46 0.44 0.35 0.36 0.29 0.18 0.17 0.14 0.08 0.04 0.02 0.01 0.00 0.00 0.00 0.00 0.00 0.00 0.00 0.00 0.00 0.00 0.00 0.00 0.00 0.00 0.00 0.00 0.00 0.00 0.00 0.00
0.39 0.37 0.44 0.49 0.46 0.33 0.41 0.58 0.54 0.52 0.46 0.47 0.42 0.37 0.27 0.21 0.21 0.17 0.10 0.07 0.04 0.03 0.02 0.01 0.01 0.00 0.00 0.00 0.00 0.00 0.00 0.00 0.00 0.00 0.00 0.00 0.00 0.00 0.00 0.00 0.00 0.00 0.00 0.00
0.42 0.37 0.35 0.38 0.36 0.42 0.40 0.42 0.39 0.43 0.37 0.38 0.36 0.29 0.20 0.15 0.10 0.09 0.06 0.04 0.03 0.02 0.02 0.01 0.00 0.00 0.00 0.00 0.00 0.00 0.00 0.00 0.00 0.00 0.00 0.00 0.00 0.00 0.00 0.00 0.00 0.00 0.00 0.00
0.45 0.43 0.38 0.36 0.39 0.39 0.36 0.34 0.32 0.39 0.30 0.25 0.24 0.19 0.15 0.09 0.07 0.04 0.03 0.02 0.01 0.01 0.01 0.00 0.00 0.00 0.00 0.00 0.00 0.00 0.00 0.00 0.00 0.00 0.00 0.00 0.00 0.00 0.00 0.00 0.00 0.00 0.00 0.00
0.37 0.36 0.27 0.29 0.35 0.33 0.30 0.29 0.21 0.25 0.23 0.17 0.16 0.15 0.10 0.07 0.04 0.03 0.02 0.01 0.01 0.01 0.01 0.00 0.00 0.00 0.00 0.00 0.00 0.00 0.00 0.00 0.00 0.00 0.00 0.00 0.00 0.00 0.00 0.00 0.00 0.00 0.00 0.00

GFSNGP_prec_precacc24_114.txt.gz
Total_Precipitation_Accumulation
0.00 0.00 0.00 0.01 0.00 0.00 0.02 0.07 0.26 0.13 0.01 0.00 0.00 0.01 0.02 0.06 0.07 0.08 0.25 0.30 0.16 0.12 0.17 0.13 0.15 0.18 0.18 0.06 0.02 0.00 0.00 0.00 0.00 0.01 0.01 0.01 0.00 0.01 0.02 0.02 0.03 0.04 0.05 0.07
0.01 0.00 0.00 0.00 0.00 0.00 0.00 0.00 0.00 0.00 0.00 0.00 0.00 0.00 0.00 0.01 0.03 0.15 0.33 0.24 0.21 0.12 0.12 0.11 0.14 0.19 0.21 0.16 0.06 0.00 0.00 0.00 0.00 0.01 0.01 0.01 0.01 0.01 0.02 0.02 0.03 0.03 0.04 0.05
0.04 0.02 0.03 0.03 0.00 0.00 0.00 0.00 0.00 0.00 0.00 0.00 0.00 0.03 0.06 0.08 0.08 0.11 0.10 0.06 0.12 0.13 0.08 0.18 0.13 0.11 0.12 0.18 0.20 0.06 0.00 0.00 0.00 0.00 0.00 0.01 0.01 0.02 0.02 0.02 0.03 0.03 0.03 0.03
0.09 0.09 0.09 0.00 0.00 0.00 0.00 0.01 0.01 0.02 0.01 0.01 0.01 0.11 0.09 0.04 0.03 0.02 0.01 0.03 0.04 0.07 0.04 0.10 0.12 0.18 0.17 0.22 0.29 0.30 0.12 0.00 0.00 0.00 0.00 0.01 0.02 0.03 0.03 0.06 0.06 0.07 0.10 0.15
0.14 0.09 0.03 0.01 0.03 0.08 0.08 0.15 0.11 0.08 0.05 0.02 0.02 0.08 0.09 0.03 0.03 0.02 0.01 0.00 0.01 0.01 0.01 0.02 0.08 0.18 0.37 0.32 0.35 0.34 0.27 0.17 0.05 0.01 0.01 0.04 0.06 0.08 0.08 0.11 0.14 0.14 0.16 0.16
0.14 0.12 0.02 0.03 0.06 0.03 0.07 0.27 0.28 0.18 0.16 0.07 0.03 0.07 0.07 0.02 0.01 0.01 0.00 0.00 0.00 0.00 0.00 0.01 0.06 0.18 0.18 0.19 0.25 0.23 0.17 0.16 0.16 0.08 0.03 0.03 0.04 0.07 0.09 0.11 0.13 0.15 0.20 0.19
0.11 0.18 0.04 0.00 0.03 0.06 0.17 0.43 0.32 0.10 0.07 0.03 0.03 0.05 0.00 0.00 0.00 0.00 0.00 0.00 0.00 0.00 0.00 0.00 0.04 0.16 0.40 0.35 0.26 0.28 0.19 0.20 0.19 0.14 0.09 0.05 0.06 0.09 0.12 0.16 0.15 0.16 0.16 0.12
0.31 0.27 0.07 0.06 0.20 0.34 0.34 0.14 0.13 0.15 0.05 0.03 0.04 0.02 0.01 0.00 0.00 0.00 0.00 0.00 0.00 0.00 0.00 0.00 0.01 0.05 0.18 0.41 0.41 0.33 0.22 0.21 0.24 0.25 0.17 0.08 0.06 0.07 0.09 0.10 0.13 0.12 0.13 0.12
0.27 0.19 0.08 0.10 0.27 0.38 0.21 0.07 0.09 0.09 0.04 0.05 0.03 0.03 0.03 0.01 0.00 0.00 0.00 0.00 0.00 0.00 0.00 0.00 0.00 0.00 0.05 0.11 0.19 0.27 0.34 0.37 0.35 0.32 0.38 0.38 0.29 0.25 0.21 0.17 0.16 0.15 0.15 0.20
0.28 0.09 0.10 0.12 0.13 0.21 0.31 0.14 0.03 0.03 0.10 0.15 0.15 0.10 0.08 0.03 0.02 0.01 0.00 0.01 0.00 0.00 0.00 0.01 0.00 0.01 0.01 0.03 0.05 0.06 0.11 0.15 0.22 0.37 0.32 0.32 0.42 0.45 0.49 0.54 0.52 0.55 0.54 0.51
0.71 0.89 0.44 0.15 0.08 0.02 0.02 0.01 0.00 0.03 0.08 0.20 0.32 0.30 0.25 0.22 0.08 0.03 0.03 0.02 0.02 0.02 0.01 0.03 0.03 0.03 0.03 0.06 0.10 0.11 0.09 0.08 0.12 0.13 0.11 0.12 0.20 0.27 0.29 0.39 0.37 0.43 0.51 0.54
0.63 0.51 0.60 0.20 0.06 0.01 0.02 0.03 0.05 0.06 0.19 0.15 0.07 0.08 0.13 0.18 0.28 0.27 0.18 0.16 0.13 0.11 0.08 0.08 0.08 0.09 0.09 0.09 0.13 0.15 0.16 0.19 0.24 0.17 0.18 0.22 0.29 0.59 0.69 0.80 0.84 0.83 0.91 0.92
0.06 0.06 0.18 0.23 0.09 0.03 0.05 0.07 0.05 0.05 0.04 0.01 0.01 0.04 0.14 0.29 0.38 0.39 0.36 0.30 0.28 0.32 0.30 0.17 0.13 0.13 0.13 0.13 0.13 0.17 0.18 0.18 0.28 0.27 0.32 0.38 0.46 0.52 0.81 0.94 0.80 0.70 0.59 0.45
0.01 0.01 0.03 0.03 0.02 0.02 0.08 0.16 0.07 0.01 0.01 0.00 0.00 0.02 0.09 0.26 0.76 1.15 1.08 0.76 0.53 0.43 0.43 0.48 0.50 0.59 0.60 0.51 0.47 0.50 0.59 0.64 0.56 0.62 0.66 0.67 0.66 0.67 0.62 0.60 0.60 0.56 0.42 0.31
0.00 0.01 0.01 0.00 0.01 0.03 0.03 0.04 0.01 0.01 0.03 0.06 0.06 0.08 0.17 0.31 0.48 0.74 1.22 1.40 1.36 1.30 1.34 1.21 1.10 1.40 1.38 1.25 1.11 1.04 0.95 0.94 0.87 0.84 0.76 0.65 0.58 0.50 0.41 0.32 0.26 0.24 0.19 0.14
0.00 0.00 0.00 0.00 0.00 0.00 0.00 0.01 0.02 0.01 0.01 0.01 0.07 0.19 0.16 0.26 0.35 0.44 0.69 0.94 1.06 1.30 1.45 1.43 1.43 1.37 1.15 1.00 0.84 0.79 0.74 0.63 0.49 0.38 0.37 0.34 0.29 0.22 0.18 0.14 0.12 0.10 0.08 0.06
0.00 0.00 0.00 0.00 0.00 0.00 0.01 0.01 0.01 0.02 0.01 0.01 0.04 0.05 0.04 0.08 0.16 0.38 0.58 0.54 0.61 0.71 0.78 0.75 0.77 0.68 0.58 0.53 0.46 0.41 0.37 0.38 0.30 0.22 0.18 0.14 0.11 0.09 0.07 0.06 0.05 0.03 0.02 0.01
0.00 0.00 0.00 0.00 0.00 0.00 0.00 0.00 0.00 0.01 0.01 0.02 0.10 0.17 0.13 0.08 0.12 0.31 0.60 0.69 0.44 0.45 0.53 0.54 0.46 0.39 0.35 0.35 0.27 0.19 0.13 0.11 0.08 0.05 0.04 0.03 0.03 0.03 0.02 0.01 0.01 0.01 0.01 0.00
0.00 0.00 0.00 0.00 0.00 0.00 0.00 0.00 0.01 0.02 0.03 0.06 0.10 0.21 0.23 0.21 0.26 0.37 0.49 0.50 0.50 0.40 0.47 0.33 0.27 0.20 0.17 0.19 0.15 0.12 0.08 0.04 0.02 0.01 0.01 0.00 0.00 0.00 0.00 0.00 0.00 0.00 0.00 0.00
0.00 0.00 0.00 0.00 0.00 0.01 0.02 0.03 0.03 0.05 0.08 0.07 0.11 0.21 0.24 0.30 0.28 0.29 0.24 0.23 0.24 0.22 0.20 0.18 0.15 0.13 0.10 0.07 0.03 0.01 0.01 0.01 0.01 0.01 0.01 0.00 0.00 0.00 0.00 0.00 0.00 0.00 0.00 0.00
0.01 0.01 0.01 0.02 0.03 0.04 0.05 0.06 0.06 0.08 0.14 0.16 0.18 0.28 0.33 0.45 0.46 0.40 0.29 0.22 0.24 0.18 0.16 0.12 0.07 0.04 0.02 0.01 0.00 0.00 0.00 0.00 0.00 0.00 0.00 0.00 0.00 0.00 0.00 0.00 0.00 0.00 0.00 0.00
0.05 0.03 0.05 0.05 0.05 0.08 0.11 0.12 0.13 0.22 0.29 0.33 0.37 0.39 0.38 0.46 0.43 0.40 0.33 0.25 0.23 0.16 0.13 0.09 0.04 0.01 0.00 0.00 0.00 0.00 0.00 0.00 0.00 0.00 0.00 0.00 0.00 0.00 0.00 0.00 0.00 0.00 0.00 0.00
0.14 0.14 0.11 0.11 0.12 0.18 0.27 0.33 0.37 0.34 0.39 0.42 0.42 0.41 0.35 0.37 0.32 0.20 0.19 0.19 0.12 0.09 0.06 0.04 0.01 0.00 0.00 0.00 0.00 0.00 0.00 0.00 0.00 0.00 0.00 0.00 0.00 0.00 0.00 0.00 0.00 0.00 0.00 0.00
0.17 0.23 0.29 0.32 0.34 0.29 0.31 0.44 0.44 0.44 0.41 0.43 0.42 0.39 0.29 0.23 0.24 0.21 0.14 0.11 0.09 0.06 0.03 0.01 0.01 0.00 0.00 0.00 0.00 0.00 0.00 0.00 0.00 0.00 0.00 0.00 0.00 0.00 0.00 0.00 0.00 0.00 0.00 0.00
0.28 0.25 0.26 0.31 0.30 0.34 0.32 0.35 0.33 0.39 0.36 0.40 0.40 0.32 0.24 0.17 0.12 0.13 0.09 0.09 0.05 0.03 0.02 0.01 0.00 0.00 0.00 0.00 0.00 0.00 0.00 0.00 0.00 0.00 0.00 0.00 0.00 0.00 0.00 0.00 0.00 0.00 0.00 0.00
0.35 0.34 0.27 0.27 0.33 0.33 0.31 0.30 0.31 0.39 0.32 0.28 0.27 0.23 0.19 0.14 0.11 0.09 0.07 0.05 0.02 0.01 0.01 0.00 0.00 0.00 0.00 0.00 0.00 0.00 0.00 0.00 0.00 0.00 0.00 0.00 0.00 0.00 0.00 0.00 0.00 0.00 0.00 0.00
0.26 0.27 0.21 0.23 0.29 0.30 0.29 0.29 0.22 0.27 0.26 0.21 0.20 0.21 0.16 0.13 0.10 0.08 0.05 0.03 0.01 0.01 0.01 0.00 0.00 0.00 0.00 0.00 0.00 0.00 0.00 0.00 0.00 0.00 0.00 0.00 0.00 0.00 0.00 0.00 0.00 0.00 0.00 0.00

GFSNGP_prec_precacc24_117.txt.gz
Total_Precipitation_Accumulation
0.00 0.00 0.00 0.01 0.00 0.00 0.02 0.07 0.26 0.13 0.01 0.00 0.00 0.01 0.02 0.06 0.07 0.08 0.25 0.30 0.18 0.18 0.22 0.15 0.15 0.22 0.33 0.21 0.15 0.07 0.02 0.00 0.01 0.01 0.01 0.02 0.01 0.01 0.01 0.01 0.01 0.01 0.02 0.03
0.01 0.00 0.00 0.00 0.00 0.00 0.00 0.00 0.00 0.00 0.00 0.00 0.00 0.00 0.00 0.01 0.03 0.15 0.33 0.24 0.22 0.16 0.18 0.15 0.14 0.20 0.30 0.28 0.15 0.05 0.01 0.00 0.00 0.01 0.01 0.02 0.02 0.01 0.01 0.01 0.02 0.01 0.02 0.02
0.03 0.02 0.02 0.00 0.00 0.00 0.00 0.00 0.00 0.00 0.00 0.00 0.00 0.03 0.06 0.08 0.08 0.11 0.10 0.06 0.13 0.19 0.14 0.22 0.18 0.13 0.17 0.25 0.26 0.08 0.00 0.00 0.00 0.00 0.01 0.01 0.02 0.02 0.02 0.03 0.03 0.03 0.04 0.03
0.07 0.08 0.08 0.00 0.00 0.00 0.00 0.01 0.01 0.02 0.01 0.01 0.01 0.11 0.09 0.05 0.03 0.02 0.01 0.03 0.04 0.09 0.05 0.11 0.20 0.36 0.33 0.30 0.32 0.32 0.12 0.00 0.00 0.00 0.00 0.01 0.02 0.04 0.04 0.06 0.06 0.06 0.08 0.11
0.12 0.07 0.01 0.00 0.02 0.07 0.08 0.15 0.11 0.08 0.05 0.02 0.02 0.09 0.10 0.04 0.03 0.02 0.01 0.00 0.01 0.01 0.01 0.02 0.10 0.36 0.63 0.56 0.38 0.37 0.28 0.17 0.04 0.00 0.00 0.02 0.05 0.08 0.08 0.10 0.13 0.11 0.13 0.15
0.13 0.11 0.02 0.02 0.04 0.02 0.06 0.27 0.28 0.21 0.19 0.10 0.05 0.08 0.09 0.03 0.02 0.01 0.00 0.00 0.00 0.00 0.00 0.01 0.07 0.22 0.34 0.60 0.47 0.28 0.19 0.17 0.15 0.06 0.02 0.02 0.03 0.06 0.09 0.10 0.13 0.17 0.20 0.20
0.14 0.26 0.04 0.00 0.03 0.04 0.16 0.41 0.38 0.40 0.22 0.06 0.11 0.14 0.04 0.02 0.01 0.00 0.00 0.00 0.00 0.00 0.00 0.00 0.04 0.17 0.45 0.62 0.80 0.61 0.30 0.21 0.18 0.12 0.08 0.03 0.05 0.08 0.12 0.15 0.15 0.17 0.17 0.14
0.29 0.25 0.06 0.06 0.23 0.30 0.23 0.16 0.26 0.40 0.20 0.08 0.11 0.06 0.03 0.01 0.00 0.00 0.00 0.00 0.00 0.00 0.00 0.00 0.01 0.06 0.20 0.51 1.01 1.08 0.62 0.29 0.26 0.27 0.17 0.08 0.06 0.07 0.09 0.11 0.14 0.12 0.13 0.13
0.14 0.07 0.04 0.09 0.27 0.38 0.22 0.15 0.14 0.07 0.05 0.09 0.07 0.03 0.03 0.01 0.00 0.00 0.00 0.00 0.00 0.00 0.00 0.00 0.01 0.02 0.06 0.14 0.29 0.76 1.06 0.79 0.45 0.36 0.41 0.41 0.31 0.28 0.23 0.17 0.16 0.15 0.14 0.20
0.35 0.11 0.09 0.12 0.14 0.21 0.33 0.25 0.04 0.02 0.09 0.15 0.14 0.10 0.08 0.02 0.01 0.01 0.00 0.01 0.00 0.00 0.00 0.01 0.00 0.01 0.03 0.05 0.10 0.14 0.34 0.56 0.51 0.51 0.40 0.46 0.65 0.65 0.75 0.79 0.60 0.58 0.55 0.49
0.86 1.02 0.59 0.22 0.13 0.03 0.02 0.01 0.02 0.04 0.08 0.19 0.31 0.30 0.25 0.22 0.08 0.02 0.02 0.02 0.02 0.02 0.02 0.03 0.03 0.03 0.04 0.08 0.13 0.15 0.16 0.19 0.32 0.58 0.40 0.23 0.32 0.44 0.40 0.55 0.54 0.46 0.50 0.53
0.81 0.82 0.96 0.54 0.49 0.17 0.07 0.05 0.09 0.07 0.19 0.15 0.06 0.07 0.12 0.17 0.28 0.27 0.18 0.16 0.13 0.10 0.07 0.08 0.09 0.10 0.09 0.10 0.15 0.18 0.19 0.25 0.34 0.42 0.43 0.29 0.31 0.63 0.75 0.87 0.91 0.89 0.95 0.94
0.21 0.35 0.46 0.62 0.35 0.11 0.12 0.23 0.15 0.06 0.06 0.01 0.00 0.01 0.05 0.17 0.31 0.36 0.35 0.29 0.27 0.31 0.30 0.17 0.13 0.13 0.13 0.13 0.14 0.19 0.21 0.22 0.35 0.39 0.44 0.43 0.51 0.58 0.92 1.09 0.94 0.80 0.67 0.53
0.02 0.02 0.04 0.03 0.03 0.03 0.08 0.18 0.10 0.02 0.00 0.00 0.00 0.02 0.05 0.15 0.62 1.02 0.94 0.66 0.48 0.39 0.39 0.44 0.45 0.56 0.62 0.53 0.48 0.51 0.60 0.67 0.59 0.65 0.70 0.72 0.73 0.74 0.70 0.68 0.69 0.71 0.57 0.44
0.00 0.01 0.02 0.01 0.01 0.03 0.03 0.04 0.00 0.01 0.01 0.00 0.00 0.02 0.13 0.24 0.40 0.62 1.05 1.18 1.10 1.02 1.10 1.09 1.08 1.39 1.40 1.28 1.16 1.07 0.96 0.96 0.90 0.87 0.80 0.70 0.62 0.54 0.45 0.36 0.30 0.31 0.27 0.21
0.00 0.00 0.00 0.00 0.00 0.00 0.00 0.00 0.01 0.01 0.00 0.00 0.04 0.15 0.14 0.25 0.33 0.39 0.58 0.80 0.96 1.22 1.41 1.42 1.42 1.37 1.18 1.03 0.88 0.83 0.79 0.69 0.53 0.43 0.43 0.40 0.35 0.29 0.25 0.21 0.17 0.14 0.10 0.07
0.00 0.00 0.00 0.00 0.00 0.00 0.01 0.00 0.01 0.01 0.01 0.02 0.04 0.05 0.04 0.08 0.16 0.36 0.48 0.42 0.57 0.68 0.77 0.76 0.77 0.71 0.62 0.57 0.49 0.44 0.40 0.43 0.35 0.27 0.24 0.20 0.18 0.16 0.14 0.11 0.07 0.05 0.03 0.01
0.00 0.00 0.00 0.01 0.00 0.00 0.00 0.00 0.01 0.01 0.01 0.02 0.10 0.17 0.13 0.09 0.12 0.29 0.56 0.66 0.45 0.46 0.53 0.56 0.48 0.41 0.39 0.40 0.32 0.22 0.15 0.14 0.13 0.09 0.08 0.08 0.09 0.09 0.07 0.03 0.02 0.01 0.01 0.00
0.00 0.00 0.00 0.00 0.00 0.00 0.00 0.01 0.01 0.02 0.04 0.06 0.11 0.21 0.24 0.20 0.20 0.26 0.41 0.47 0.51 0.41 0.49 0.36 0.29 0.22 0.20 0.22 0.17 0.14 0.11 0.07 0.05 0.05 0.05 0.04 0.02 0.01 0.01 0.00 0.00 0.00 0.00 0.00
0.00 0.00 0.00 0.00 0.00 0.01 0.02 0.03 0.04 0.05 0.08 0.08 0.11 0.21 0.23 0.27 0.26 0.27 0.24 0.23 0.24 0.23 0.21 0.19 0.16 0.15 0.12 0.10 0.05 0.03 0.03 0.03 0.03 0.02 0.02 0.01 0.00 0.00 0.00 0.00 0.00 0.00 0.00 0.00
0.01 0.00 0.01 0.01 0.02 0.03 0.04 0.06 0.06 0.07 0.12 0.14 0.16 0.24 0.29 0.41 0.44 0.40 0.29 0.22 0.25 0.20 0.17 0.13 0.08 0.05 0.03 0.01 0.00 0.00 0.00 0.00 0.00 0.00 0.00 0.00 0.00 0.00 0.00 0.00 0.00 0.00 0.00 0.00
0.02 0.02 0.03 0.04 0.04 0.07 0.10 0.10 0.09 0.12 0.15 0.20 0.27 0.33 0.35 0.44 0.43 0.40 0.34 0.26 0.24 0.18 0.14 0.10 0.05 0.01 0.00 0.00 0.00 0.00 0.00 0.00 0.00 0.00 0.00 0.00 0.00 0.00 0.00 0.00 0.00 0.00 0.00 0.00
0.04 0.05 0.05 0.06 0.07 0.11 0.13 0.16 0.22 0.22 0.28 0.32 0.36 0.39 0.35 0.37 0.33 0.21 0.20 0.20 0.14 0.11 0.08 0.05 0.01 0.00 0.00 0.00 0.00 0.00 0.00 0.00 0.00 0.00 0.00 0.00 0.00 0.00 0.00 0.00 0.00 0.00 0.00 0.00
0.04 0.09 0.13 0.12 0.11 0.12 0.18 0.29 0.29 0.32 0.34 0.38 0.38 0.37 0.30 0.24 0.25 0.22 0.15 0.13 0.10 0.07 0.03 0.01 0.01 0.00 0.00 0.00 0.00 0.00 0.00 0.00 0.00 0.00 0.00 0.00 0.00 0.00 0.00 0.00 0.00 0.00 0.00 0.00
0.08 0.10 0.11 0.14 0.14 0.21 0.25 0.29 0.29 0.35 0.33 0.37 0.39 0.33 0.25 0.18 0.13 0.14 0.10 0.10 0.06 0.03 0.02 0.01 0.00 0.00 0.00 0.00 0.00 0.00 0.00 0.00 0.00 0.00 0.00 0.00 0.00 0.00 0.00 0.00 0.00 0.00 0.00 0.00
0.19 0.20 0.15 0.17 0.25 0.27 0.27 0.28 0.29 0.37 0.31 0.28 0.28 0.24 0.20 0.15 0.13 0.10 0.09 0.06 0.02 0.01 0.01 0.00 0.00 0.00 0.00 0.00 0.00 0.00 0.00 0.00 0.00 0.00 0.00 0.00 0.00 0.00 0.00 0.00 0.00 0.00 0.00 0.00
0.17 0.20 0.15 0.18 0.24 0.26 0.26 0.27 0.22 0.28 0.28 0.22 0.21 0.22 0.18 0.15 0.12 0.10 0.07 0.04 0.02 0.01 0.01 0.00 0.00 0.00 0.00 0.00 0.00 0.00 0.00 0.00 0.00 0.00 0.00 0.00 0.00 0.00 0.00 0.00 0.00 0.00 0.00 0.00

GFSNGP_prec_precacc24_123.txt.gz
Total_Precipitation_Accumulation
0.00 0.00 0.01 0.01 0.00 0.00 0.02 0.07 0.26 0.13 0.02 0.01 0.01 0.01 0.02 0.06 0.07 0.08 0.25 0.30 0.18 0.18 0.22 0.15 0.16 0.22 0.34 0.24 0.20 0.16 0.16 0.11 0.08 0.06 0.05 0.03 0.03 0.01 0.01 0.01 0.01 0.01 0.02 0.02
0.00 0.00 0.00 0.00 0.00 0.00 0.00 0.00 0.00 0.00 0.00 0.00 0.00 0.00 0.00 0.01 0.03 0.15 0.33 0.24 0.22 0.16 0.18 0.16 0.15 0.20 0.32 0.33 0.23 0.17 0.16 0.11 0.08 0.08 0.06 0.04 0.04 0.02 0.02 0.02 0.02 0.01 0.01 0.01
0.05 0.00 0.00 0.00 0.00 0.00 0.00 0.00 0.00 0.00 0.00 0.00 0.00 0.03 0.06 0.08 0.08 0.11 0.11 0.06 0.13 0.19 0.14 0.22 0.19 0.13 0.23 0.35 0.34 0.20 0.16 0.13 0.09 0.07 0.05 0.04 0.04 0.03 0.03 0.04 0.03 0.03 0.04 0.03
0.10 0.09 0.07 0.00 0.00 0.00 0.00 0.01 0.01 0.02 0.01 0.01 0.01 0.11 0.09 0.05 0.04 0.03 0.02 0.03 0.04 0.09 0.05 0.11 0.21 0.37 0.40 0.44 0.47 0.43 0.24 0.14 0.09 0.06 0.04 0.03 0.03 0.03 0.03 0.04 0.05 0.05 0.06 0.07
0.15 0.09 0.03 0.00 0.02 0.07 0.07 0.15 0.11 0.07 0.04 0.02 0.02 0.09 0.11 0.08 0.04 0.03 0.01 0.00 0.01 0.01 0.01 0.02 0.10 0.36 0.70 0.80 0.59 0.56 0.41 0.29 0.15 0.08 0.03 0.02 0.02 0.03 0.04 0.06 0.09 0.07 0.08 0.10
0.12 0.16 0.04 0.03 0.04 0.02 0.07 0.27 0.26 0.19 0.17 0.09 0.06 0.09 0.17 0.07 0.02 0.01 0.00 0.00 0.00 0.00 0.00 0.01 0.07 0.22 0.38 0.74 0.83 0.58 0.51 0.37 0.31 0.16 0.04 0.01 0.02 0.04 0.07 0.07 0.09 0.15 0.16 0.17
0.19 0.38 0.08 0.03 0.03 0.03 0.14 0.46 0.43 0.50 0.67 0.54 0.47 0.48 0.22 0.12 0.04 0.01 0.00 0.00 0.00 0.00 0.00 0.00 0.04 0.17 0.46 0.68 1.05 1.03 0.68 0.58 0.40 0.23 0.10 0.03 0.04 0.07 0.10 0.13 0.12 0.15 0.16 0.13
0.46 0.37 0.25 0.09 0.18 0.32 0.26 0.20 0.35 0.86 0.95 0.69 0.48 0.33 0.22 0.09 0.03 0.00 0.00 0.00 0.00 0.00 0.00 0.00 0.01 0.06 0.20 0.53 1.14 1.58 1.25 0.81 0.68 0.49 0.19 0.09 0.06 0.08 0.10 0.11 0.13 0.13 0.14 0.13
0.29 0.21 0.16 0.10 0.23 0.33 0.21 0.25 0.34 0.21 0.30 0.20 0.10 0.01 0.02 0.01 0.00 0.00 0.00 0.00 0.00 0.00 0.00 0.00 0.01 0.02 0.07 0.15 0.34 1.15 1.81 1.75 1.26 0.76 0.54 0.46 0.33 0.30 0.25 0.19 0.17 0.15 0.14 0.19
0.72 0.41 0.27 0.18 0.14 0.23 0.37 0.32 0.08 0.08 0.06 0.03 0.05 0.06 0.07 0.02 0.00 0.00 0.00 0.01 0.00 0.00 0.00 0.00 0.01 0.02 0.04 0.05 0.12 0.38 0.87 1.43 1.69 1.64 0.83 0.59 0.74 0.73 0.81 0.82 0.61 0.57 0.55 0.48
1.15 1.35 0.82 0.42 0.39 0.30 0.20 0.15 0.22 0.08 0.02 0.05 0.12 0.21 0.19 0.16 0.05 0.00 0.00 0.01 0.02 0.02 0.01 0.02 0.03 0.03 0.05 0.10 0.14 0.22 0.52 0.91 1.13 1.60 1.49 0.61 0.51 0.74 0.72 0.80 0.83 0.65 0.56 0.55
1.00 1.09 1.21 0.82 0.90 0.55 0.31 0.13 0.13 0.04 0.03 0.05 0.03 0.05 0.08 0.11 0.14 0.13 0.11 0.06 0.05 0.06 0.06 0.07 0.09 0.10 0.11 0.12 0.18 0.23 0.39 0.73 0.96 1.12 1.51 1.41 0.82 0.96 1.22 1.40 1.36 1.33 1.40 1.26
0.27 0.43 0.59 0.71 0.40 0.14 0.14 0.25 0.14 0.04 0.03 0.00 0.00 0.00 0.01 0.03 0.07 0.22 0.28 0.22 0.14 0.19 0.25 0.15 0.12 0.14 0.15 0.16 0.15 0.21 0.28 0.34 0.64 0.88 1.10 1.20 1.24 1.04 1.17 1.35 1.25 1.13 0.99 0.83
0.02 0.02 0.04 0.04 0.04 0.03 0.08 0.18 0.09 0.01 0.00 0.00 0.00 0.00 0.00 0.02 0.15 0.34 0.36 0.38 0.32 0.27 0.30 0.37 0.37 0.42 0.46 0.44 0.40 0.42 0.59 0.80 0.77 0.87 1.17 1.37 1.41 1.26 1.12 1.06 1.00 1.07 0.98 0.86
0.00 0.02 0.03 0.01 0.02 0.04 0.03 0.04 0.00 0.00 0.00 0.00 0.00 0.00 0.00 0.07 0.26 0.29 0.33 0.31 0.34 0.45 0.61 0.62 0.62 0.89 1.01 1.02 1.02 1.03 0.96 1.00 1.04 1.12 1.05 0.99 1.11 1.08 0.87 0.76 0.68 0.65 0.60 0.48
0.00 0.00 0.00 0.00 0.00 0.01 0.01 0.00 0.00 0.00 0.00 0.00 0.01 0.01 0.03 0.13 0.29 0.33 0.31 0.34 0.33 0.54 0.73 0.81 0.95 1.04 1.03 1.02 0.93 0.93 0.90 0.76 0.59 0.55 0.66 0.69 0.63 0.64 0.63 0.54 0.47 0.36 0.28 0.25
0.00 0.00 0.00 0.00 0.00 0.00 0.01 0.00 0.00 0.00 0.01 0.01 0.01 0.01 0.02 0.05 0.08 0.20 0.32 0.29 0.30 0.39 0.51 0.58 0.70 0.71 0.64 0.63 0.55 0.50 0.49 0.51 0.42 0.34 0.31 0.31 0.37 0.36 0.32 0.27 0.22 0.16 0.11 0.04
0.00 0.00 0.00 0.01 0.00 0.00 0.00 0.00 0.00 0.01 0.01 0.03 0.02 0.03 0.06 0.08 0.09 0.16 0.27 0.35 0.27 0.29 0.39 0.48 0.47 0.42 0.40 0.45 0.38 0.29 0.22 0.21 0.21 0.17 0.17 0.18 0.18 0.18 0.16 0.11 0.07 0.04 0.03 0.01
0.00 0.00 0.00 0.00 0.00 0.00 0.00 0.01 0.01 0.02 0.03 0.03 0.03 0.07 0.13 0.16 0.14 0.14 0.16 0.18 0.24 0.23 0.41 0.35 0.30 0.22 0.21 0.24 0.20 0.19 0.16 0.13 0.11 0.12 0.12 0.12 0.09 0.08 0.06 0.03 0.01 0.01 0.01 0.01
0.00 0.00 0.00 0.00 0.00 0.01 0.01 0.02 0.03 0.04 0.06 0.04 0.05 0.08 0.12 0.16 0.15 0.16 0.16 0.19 0.23 0.24 0.23 0.22 0.18 0.16 0.14 0.13 0.07 0.05 0.07 0.08 0.07 0.07 0.08 0.06 0.04 0.03 0.01 0.00 0.00 0.00 0.00 0.00
0.00 0.00 0.00 0.01 0.02 0.02 0.03 0.04 0.04 0.05 0.09 0.06 0.07 0.15 0.17 0.22 0.24 0.24 0.22 0.21 0.26 0.22 0.19 0.15 0.09 0.06 0.04 0.03 0.03 0.03 0.04 0.04 0.03 0.02 0.02 0.01 0.01 0.00 0.00 0.00 0.00 0.00 0.00 0.00
0.00 0.00 0.01 0.01 0.02 0.03 0.05 0.05 0.05 0.06 0.09 0.11 0.12 0.14 0.18 0.25 0.25 0.26 0.27 0.24 0.25 0.19 0.15 0.11 0.06 0.02 0.00 0.00 0.01 0.01 0.01 0.01 0.00 0.00 0.00 0.00 0.00 0.00 0.00 0.00 0.00 0.00 0.00 0.00
0.01 0.01 0.01 0.02 0.02 0.04 0.05 0.06 0.08 0.07 0.09 0.12 0.15 0.18 0.18 0.23 0.22 0.17 0.18 0.20 0.14 0.12 0.09 0.05 0.01 0.00 0.00 0.00 0.00 0.00 0.00 0.00 0.00 0.00 0.00 0.00 0.00 0.00 0.00 0.00 0.00 0.00 0.00 0.00
0.00 0.01 0.01 0.03 0.02 0.02 0.05 0.10 0.10 0.11 0.11 0.15 0.18 0.20 0.20 0.20 0.24 0.22 0.15 0.13 0.11 0.08 0.04 0.02 0.01 0.00 0.00 0.01 0.01 0.00 0.00 0.00 0.00 0.00 0.00 0.00 0.00 0.00 0.00 0.00 0.00 0.00 0.00 0.00
0.01 0.01 0.02 0.02 0.02 0.05 0.06 0.09 0.10 0.14 0.14 0.18 0.23 0.24 0.23 0.18 0.14 0.16 0.12 0.12 0.08 0.03 0.03 0.01 0.00 0.00 0.00 0.00 0.00 0.00 0.00 0.00 0.00 0.00 0.00 0.00 0.00 0.00 0.00 0.00 0.00 0.00 0.00 0.00
0.04 0.03 0.03 0.02 0.03 0.05 0.07 0.08 0.10 0.15 0.15 0.17 0.22 0.23 0.21 0.16 0.14 0.12 0.11 0.08 0.03 0.01 0.01 0.01 0.00 0.00 0.00 0.00 0.00 0.00 0.00 0.00 0.00 0.00 0.00 0.00 0.00 0.00 0.00 0.00 0.00 0.00 0.00 0.00
0.03 0.02 0.03 0.05 0.06 0.06 0.06 0.08 0.11 0.17 0.20 0.20 0.21 0.24 0.20 0.18 0.15 0.13 0.10 0.08 0.04 0.02 0.02 0.01 0.00 0.00 0.00 0.00 0.00 0.00 0.00 0.00 0.00 0.00 0.00 0.00 0.00 0.00 0.00 0.00 0.00 0.00 0.00 0.00